TimeMDT,TemperatureF,Dew PointF,Humidity,Sea Level PressureIn,VisibilityMPH,Wind Direction,Wind SpeedMPH,Gust SpeedMPH,PrecipitationIn,Events,Conditions,WindDirDegrees,DateUTC
12:53 AM,34.0,19.0,54,30.14,10.0,SW,3.5,-,N/A,,Clear,230,2013-10-05 06:53:00
1:53 AM,33.1,19.0,56,30.13,10.0,Calm,Calm,-,N/A,,Clear,0,2013-10-05 07:53:00
2:53 AM,30.9,19.0,61,30.14,10.0,Calm,Calm,-,N/A,,Clear,0,2013-10-05 08:53:00
3:53 AM,30.9,21.0,67,30.17,10.0,East,8.1,-,N/A,,Clear,90,2013-10-05 09:53:00
4:53 AM,30.0,19.9,66,30.19,10.0,NNE,6.9,-,N/A,,Clear,20,2013-10-05 10:53:00
5:53 AM,30.0,19.0,64,30.23,10.0,NNE,5.8,-,N/A,,Clear,30,2013-10-05 11:53:00
6:53 AM,30.0,19.0,64,30.24,10.0,Calm,Calm,-,N/A,,Clear,0,2013-10-05 12:53:00
7:53 AM,30.9,21.9,69,30.24,10.0,WNW,3.5,-,N/A,,Clear,290,2013-10-05 13:53:00
8:53 AM,37.0,19.9,50,30.26,10.0,Calm,Calm,-,N/A,,Clear,0,2013-10-05 14:53:00
9:53 AM,42.1,19.9,41,30.25,10.0,Calm,Calm,-,N/A,,Clear,0,2013-10-05 15:53:00
10:53 AM,45.0,19.9,37,30.23,10.0,SSE,3.5,-,N/A,,Clear,160,2013-10-05 16:53:00
11:53 AM,50.0,18.0,28,30.19,10.0,SSW,3.5,-,N/A,,Clear,200,2013-10-05 17:53:00
12:53 PM,55.9,16.0,21,30.15,10.0,SE,4.6,-,N/A,,Clear,130,2013-10-05 18:53:00
1:53 PM,61.0,16.0,17,30.11,10.0,NNE,4.6,-,N/A,,Clear,30,2013-10-05 19:53:00
2:53 PM,63.0,9.0,12,30.09,10.0,NNW,8.1,19.6,N/A,,Clear,340,2013-10-05 20:53:00
3:53 PM,64.0,9.0,12,30.06,10.0,ENE,11.5,16.1,N/A,,Clear,60,2013-10-05 21:53:00
4:53 PM,64.0,3.9,9,30.07,10.0,ENE,8.1,-,N/A,,Clear,60,2013-10-05 22:53:00
5:53 PM,63.0,-4.0,7,30.08,10.0,NE,12.7,-,N/A,,Clear,40,2013-10-05 23:53:00
6:53 PM,55.9,1.9,11,30.14,10.0,ENE,5.8,-,N/A,,Clear,70,2013-10-06 00:53:00
7:53 PM,50.0,3.9,15,30.17,10.0,Calm,Calm,-,N/A,,Clear,0,2013-10-06 01:53:00
8:53 PM,43.0,5.0,21,30.19,10.0,Calm,Calm,-,N/A,,Clear,0,2013-10-06 02:53:00
9:53 PM,42.1,6.1,23,30.19,10.0,West,5.8,-,N/A,,Clear,270,2013-10-06 03:53:00
10:53 PM,36.0,8.1,31,30.20,9.0,WSW,3.5,-,N/A,,Clear,250,2013-10-06 04:53:00
11:53 PM,37.9,14.0,38,30.19,10.0,East,4.6,-,N/A,,Clear,80,2013-10-06 05:53:00